Location: Beadle
(51.4667°N, 109.0000°W)
Time: 04:14:42
(UTC+00:00)

Altair - Pass Details

Date: 01 June 2022
Orbit: 1501 x 1682 km, 47.2° (Epoch: 30 June)

Event Time Altitude Azimuth Distance (km) Brightness Sun altitude
Rises 22:11:20 0° 228° (SW) 4,790 10.8 45.0°
Reaches altitude 10° 22:14:30 10° 223° (SW) 3,831 10.5 44.6°
Maximum altitude 22:23:48 50° 152° (SSE) 2,020 8.6 43.2°
Drops below altitude 10° 22:33:23 10° 81° (E) 3,942 9.3 41.8°
Sets 22:36:41 0° 77° (ENE) 4,938 9.7 41.3°
